Theta_e
315 314 314 313 314 314 315 315 316 316 316 316 316 316 317 316 314 309 300 306 308 321 315 310 309 308 307 305 303 302 297 294 295 294 297 302 301 304 305 304 304 308 307 308 315
316 315 314 313 313 313 314 315 315 315 316 316 316 316 316 316 305 301 309 319 321 319 307 305 303 305 303 303 303 301 296 295 297 297 298 299 300 302 301 302 303 305 308 309 314
317 316 315 314 313 313 314 314 315 315 315 316 317 316 316 314 299 297 313 319 318 315 310 306 305 303 300 302 301 299 296 297 296 297 298 298 298 300 299 298 302 302 303 307 311
318 317 316 315 313 313 313 314 315 315 315 316 317 317 316 307 291 305 320 318 317 312 309 305 303 300 298 297 300 295 298 296 297 298 298 297 299 298 299 301 301 303 303 305 308
320 318 318 316 315 314 313 313 314 315 315 315 316 316 308 298 298 310 315 316 310 309 306 303 300 298 295 296 297 296 296 296 297 296 296 297 297 298 298 302 303 301 300 302 305
320 319 318 318 316 314 314 314 314 314 314 315 316 315 303 294 305 308 308 308 308 305 304 303 301 300 297 296 296 296 296 296 297 296 296 294 296 294 299 299 299 298 300 301 302
320 320 319 318 316 315 315 315 314 314 314 315 315 307 300 297 306 307 307 306 308 305 303 304 303 300 299 295 297 296 293 296 294 293 294 294 294 293 300 298 299 300 300 300 300
320 319 319 318 317 317 316 315 314 314 314 314 313 304 296 304 307 305 307 305 307 307 305 305 304 301 298 298 294 293 292 290 292 293 294 294 293 299 298 297 299 301 301 300 300
320 319 319 318 318 317 317 316 315 314 314 312 302 299 294 307 301 304 306 303 305 304 305 303 303 297 297 293 291 290 288 287 290 294 293 293 294 300 297 296 298 300 301 301 300
318 319 319 318 318 317 316 315 313 310 308 304 300 295 297 295 301 303 305 305 301 302 301 300 298 294 292 291 287 287 286 287 289 292 293 293 293 297 299 298 297 298 299 299 298
313 318 319 318 318 318 313 308 299 298 299 296 296 294 296 300 302 300 304 302 300 298 293 295 291 288 291 292 289 289 288 288 291 291 290 291 291 295 298 298 297 298 297 297 296
311 313 319 319 318 318 309 301 300 301 295 298 295 295 298 301 295 298 304 297 295 291 294 291 287 292 291 291 289 288 287 288 289 290 290 291 291 296 296 296 296 296 297 296 295
309 311 312 319 318 312 306 305 307 304 296 297 296 295 295 299 294 296 301 297 293 290 291 290 290 290 290 288 287 288 287 287 287 290 290 289 291 295 295 294 295 295 296 295 296
308 308 310 312 312 309 306 311 306 303 291 294 293 295 296 298 293 298 301 297 292 290 290 289 291 289 289 288 289 285 290 288 288 288 286 289 286 293 294 296 295 296 296 296 295
306 306 307 309 309 306 310 311 304 302 282 294 291 298 296 294 294 293 300 296 290 289 290 288 289 288 287 288 290 288 289 289 288 288 287 287 286 292 293 295 298 297 297 296 297
305 305 306 310 309 308 309 307 304 287 283 286 290 290 290 291 292 294 295 297 295 290 290 288 291 290 290 289 289 291 290 289 289 288 285 285 286 289 293 295 295 295 296 295 296
305 304 303 304 304 308 308 302 284 283 289 284 286 289 289 287 289 291 289 288 288 285 286 286 288 290 290 289 290 289 288 288 286 283 284 284 284 290 294 295 295 294 295 295 296
304 303 302 305 307 307 305 291 281 285 286 287 287 288 286 288 287 288 288 286 289 289 286 286 283 287 290 289 288 287 287 289 282 281 284 283 282 291 294 294 294 294 294 295 296
301 300 301 305 307 306 297 285 286 287 288 286 286 285 284 286 287 287 287 287 289 288 289 285 283 287 288 289 289 286 285 287 282 275 282 287 290 294 294 296 295 294 292 293 294
296 296 299 307 307 302 289 287 286 290 288 289 286 286 283 285 285 285 285 289 288 290 291 289 282 284 286 289 288 287 289 284 285 281 279 283 284 289 291 291 292 293 293 292 293
295 289 301 309 305 295 285 285 290 291 290 287 287 284 286 284 286 284 285 287 289 288 290 288 289 282 285 285 285 284 284 284 285 284 283 282 286 293 291 292 293 294 293 292 293
292 283 302 307 289 286 286 289 292 289 292 289 289 287 286 286 284 285 285 286 291 290 286 289 287 281 284 285 286 286 286 287 285 282 282 283 287 293 293 293 295 295 295 295 294
288 291 301 302 283 284 288 290 292 289 290 290 288 290 289 286 283 285 286 288 289 289 288 289 286 280 282 284 285 283 286 286 287 286 282 284 286 293 292 293 294 294 297 296 296
291 283 290 294 295 289 286 287 287 293 291 292 290 291 289 286 289 284 285 287 289 289 293 292 285 285 282 283 285 281 283 285 286 284 283 284 288 290 291 292 294 296 297 296 296
289 285 287 283 285 290 289 288 286 286 291 293 289 291 289 283 284 285 286 286 288 289 290 289 284 280 281 283 284 284 282 283 281 285 284 286 284 289 291 292 293 294 295 296 292
283 284 284 283 289 288 287 285 287 288 289 288 289 290 290 286 289 284 287 287 286 287 288 288 282 281 280 281 282 283 285 283 282 283 284 284 283 292 293 295 293 293 294 294 295
291 290 290 286 287 285 285 287 287 290 290 293 292 290 288 291 292 294 294 294 292 287 286 286 283 284 282 280 282 281 283 284 284 285 287 282 289 293 292 291 292 293 294 294 295
Wind_Speed
8 7 6 4 4 2 2 2 2 2 3 3 3 3 4 4 5 3 5 1 2 8 4 6 4 4 3 4 2 1 5 5 4 5 1 4 4 4 1 6 4 7 6 3 7
10 8 7 5 5 3 3 3 3 2 4 4 3 2 3 4 1 5 3 5 6 5 5 8 7 7 4 4 3 5 4 5 2 2 3 1 4 2 4 8 9 12 13 5 9
11 10 9 7 6 5 3 3 4 4 4 5 5 3 2 2 3 1 1 5 4 4 1 3 6 3 3 3 5 4 6 2 2 6 5 4 5 4 5 10 13 10 5 10 10
12 12 10 9 7 7 5 2 5 4 4 6 6 6 4 3 3 1 4 4 4 3 6 6 6 6 5 6 4 5 7 5 2 1 2 4 5 7 13 13 3 6 4 6 12
13 11 10 9 10 8 6 4 4 5 6 6 6 5 3 2 3 4 5 6 4 4 5 5 7 4 5 4 4 6 3 3 5 5 7 4 13 12 19 18 14 11 7 9 10
13 12 11 10 10 9 6 5 4 5 5 7 6 4 2 4 3 5 6 5 5 3 4 4 4 2 2 2 5 0 4 8 6 5 4 5 7 3 3 1 4 6 10 11 13
13 13 12 11 11 9 7 6 4 4 6 7 5 2 2 3 2 4 4 3 5 4 4 2 3 3 4 2 0 1 6 7 6 3 5 1 10 12 11 5 9 10 9 7 8
15 13 12 11 10 9 7 6 4 2 5 5 1 2 5 1 2 4 4 4 4 4 4 3 2 4 1 1 0 2 3 4 3 2 1 2 6 3 1 4 7 8 8 7 7
17 15 14 12 10 9 7 5 3 3 1 0 1 3 3 3 3 2 3 6 6 3 5 4 3 3 2 2 3 1 5 4 2 1 2 4 7 4 2 4 13 14 15 12 9
11 18 15 14 12 10 6 3 2 3 4 2 1 4 4 4 3 4 1 6 3 7 5 3 3 3 3 6 5 3 4 3 5 2 3 8 23 19 17 15 16 15 13 10 8
15 11 17 14 13 12 7 4 3 3 4 7 4 1 3 3 2 1 2 5 4 2 6 2 6 10 12 10 1 2 1 7 4 1 5 8 21 19 18 14 14 6 2 2 2
12 13 14 17 16 15 4 4 4 2 3 10 1 2 2 3 5 3 4 6 6 6 8 5 11 5 4 7 5 3 7 8 4 2 3 8 25 19 10 5 4 2 1 3 7
8 11 13 18 18 11 7 6 0 1 2 4 6 5 5 6 3 13 10 5 4 8 12 6 4 4 6 5 7 5 8 4 5 4 2 8 11 5 1 3 5 4 1 3 7
7 8 10 17 14 8 7 8 4 5 1 6 8 6 6 6 4 2 5 2 2 10 9 5 3 5 7 5 8 5 5 3 2 2 3 3 6 7 4 8 6 5 6 6 8
7 6 9 9 5 8 3 8 8 5 6 6 5 2 4 6 10 2 3 0 7 8 7 3 7 7 4 3 8 2 2 3 1 2 3 3 5 8 3 10 4 6 8 6 7
5 6 9 3 2 5 11 13 5 5 9 4 5 7 9 2 3 5 4 2 2 5 2 3 1 0 2 3 2 8 5 3 2 0 3 0 5 8 3 3 3 4 6 7 8
5 5 4 4 2 9 14 5 2 7 3 6 6 8 6 6 5 5 11 11 8 7 5 2 3 2 2 6 2 2 5 1 2 1 3 1 4 11 8 5 4 5 4 6 7
7 5 4 4 6 12 8 5 9 4 5 2 5 11 7 7 3 5 11 11 8 2 4 8 5 9 5 2 5 6 2 3 4 3 1 1 7 3 2 4 3 1 2 7 8
4 1 3 5 7 4 3 12 7 7 8 10 7 8 5 4 4 6 9 7 11 11 6 6 2 1 3 1 3 6 5 2 7 2 2 3 7 4 5 8 9 2 2 3 6
3 3 6 12 10 4 3 6 5 3 4 8 7 6 10 13 8 9 11 5 6 11 1 5 4 2 2 1 2 2 5 4 1 4 5 2 5 5 11 12 13 9 7 2 4
4 4 5 15 8 3 7 4 6 6 4 4 2 6 6 9 9 8 8 2 4 7 3 4 2 2 1 6 8 5 4 3 2 2 2 2 3 3 10 9 13 12 10 7 1
5 6 7 14 9 3 11 12 4 10 8 5 3 5 8 9 7 7 10 2 7 12 9 4 4 5 2 2 3 3 4 7 6 7 0 1 1 6 9 7 8 9 7 7 4
5 3 5 11 13 12 5 14 10 10 7 6 4 2 3 8 6 4 5 2 5 7 11 9 3 5 1 2 1 6 6 3 2 3 8 5 4 3 6 4 1 7 6 5 6
6 7 4 8 8 15 16 12 12 3 10 5 6 5 5 4 1 8 6 2 4 3 1 5 2 3 8 3 5 6 6 8 4 4 6 7 5 5 3 9 9 7 6 6 6
5 6 5 14 17 15 19 14 17 10 4 10 4 12 8 6 2 4 5 5 2 2 3 3 4 3 0 1 2 3 6 8 8 9 8 4 8 6 5 9 16 5 11 7 6
9 5 2 2 16 15 18 16 22 8 15 15 9 10 10 10 8 10 8 5 4 3 3 3 3 2 0 1 3 3 5 8 5 3 9 8 15 11 13 13 7 11 7 9 8
4 3 4 10 17 18 14 14 21 18 4 10 14 10 10 8 7 9 5 8 8 6 4 5 6 3 3 1 2 8 9 13 6 6 8 10 11 6 6 5 5 7 8 8 9
Wind_Direction
231 237 237 230 251 208 275 301 330 351 332 339 347 325 314 322 318 182 221 263 189 143 141 134 147 151 157 137 139 227 237 240 244 203 153 149 226 164 317 266 224 205 255 54 120
230 229 235 237 244 248 264 299 314 334 327 329 328 323 307 329 202 228 313 157 135 144 158 166 157 162 163 157 167 222 236 230 274 245 277 255 243 264 250 224 242 248 232 179 158
224 224 227 231 236 251 252 289 304 324 329 328 321 305 282 258 234 124 177 151 144 160 191 180 140 174 173 175 186 174 244 228 234 253 274 277 259 240 248 261 247 248 257 195 194
222 224 219 221 229 239 251 266 296 311 325 323 322 315 303 200 244 128 150 142 130 152 145 151 154 165 185 201 168 232 253 248 292 251 238 255 305 264 238 251 275 254 247 188 208
215 216 216 220 223 229 241 248 283 305 318 315 320 317 259 206 223 156 124 131 124 153 168 163 172 156 200 191 163 234 268 240 258 250 259 276 258 268 269 266 258 247 240 232 227
210 209 210 211 225 222 222 239 258 295 312 312 313 318 246 250 103 158 142 138 143 148 159 166 193 194 136 194 217 316 271 270 277 273 258 254 270 313 240 56 222 226 243 241 237
210 205 207 209 215 222 220 223 243 287 305 307 298 266 241 265 157 151 166 140 149 148 150 163 133 200 151 181 174 285 290 276 232 264 244 287 256 235 251 252 263 257 251 245 236
204 207 204 207 213 213 213 226 231 256 305 301 228 250 253 71 160 154 162 112 125 108 116 108 122 102 352 101 259 270 258 281 107 202 224 226 259 266 247 244 256 249 253 239 232
199 201 206 205 206 204 204 218 222 267 202 151 228 256 251 124 189 163 185 148 123 97 83 101 79 81 141 213 268 228 277 238 287 179 304 244 295 300 214 264 279 271 276 272 257
255 198 200 199 195 192 186 197 153 116 99 114 110 273 171 195 150 144 82 147 129 134 106 100 98 158 142 190 234 206 242 251 275 70 231 268 270 274 283 284 279 281 288 280 259
343 235 198 194 190 174 146 138 156 173 226 190 191 238 139 100 124 138 178 125 120 151 161 129 201 208 204 206 120 99 253 288 281 11 288 278 286 288 287 280 281 279 309 344 100
343 344 225 189 193 167 161 216 221 75 232 219 194 255 155 193 116 182 189 171 176 168 140 151 235 213 129 178 201 229 272 272 264 295 284 321 295 293 290 257 257 309 14 88 130
331 333 337 195 175 149 188 211 191 117 276 207 188 186 178 161 181 178 184 163 172 157 192 193 112 131 168 153 179 219 238 245 270 310 228 300 271 304 149 250 240 221 106 107 151
312 322 328 323 168 154 211 195 93 17 245 211 202 209 143 159 194 129 209 184 159 186 170 244 137 141 157 192 189 235 219 224 261 259 276 331 295 289 298 287 238 189 183 151 146
278 308 316 321 141 179 157 135 99 61 223 120 136 96 137 182 126 160 153 173 174 156 167 160 167 162 173 198 183 121 127 144 214 175 302 197 240 277 326 287 277 174 165 158 157
258 308 337 269 206 131 127 112 85 185 242 145 126 165 149 144 114 126 154 85 110 109 50 95 46 155 86 99 85 142 107 83 84 17 235 299 256 273 273 337 37 72 156 156 156
244 263 300 308 221 161 126 101 121 236 95 178 168 169 155 148 135 165 171 174 168 139 173 140 168 129 160 112 100 188 146 208 210 157 257 33 220 259 314 321 349 42 153 162 159
230 273 248 240 162 153 141 115 207 174 215 117 131 134 172 150 148 152 157 189 219 97 134 173 207 174 150 202 176 182 218 194 230 204 70 113 233 248 39 335 21 315 45 163 172
204 268 245 182 173 205 147 200 200 165 163 152 113 133 169 185 145 156 193 204 199 179 172 160 156 18 42 359 283 166 198 87 99 74 260 225 260 258 60 24 16 109 82 171 194
170 227 227 161 167 147 65 192 182 162 134 199 135 172 169 175 161 189 175 186 198 194 120 180 110 8 43 240 59 278 141 123 98 220 223 203 274 234 32 20 38 43 28 30 209
156 211 188 159 156 177 203 202 168 198 164 177 95 139 158 166 181 182 180 174 197 170 158 130 104 71 206 210 180 159 184 95 77 231 229 183 224 146 108 65 59 46 37 24 27
182 202 167 160 180 170 206 163 165 147 205 172 158 118 153 162 155 188 186 261 163 145 173 184 107 142 195 330 310 308 230 192 188 183 225 312 240 160 144 93 68 48 35 36 7
184 207 187 185 185 198 203 214 202 157 185 162 132 110 143 157 135 179 178 67 154 163 151 175 181 118 112 196 194 224 201 227 109 75 187 172 209 123 148 244 64 16 7 10 340
166 183 183 202 219 189 175 192 196 177 189 144 125 105 125 118 6 156 137 158 162 172 135 112 118 185 195 141 125 186 194 197 181 196 177 227 286 180 293 308 326 340 3 329 324
178 215 207 180 202 200 186 173 183 187 192 172 165 199 165 125 82 139 127 136 96 91 104 188 170 150 312 40 160 161 172 172 191 207 209 195 220 276 314 306 307 333 324 333 312
149 178 188 180 183 177 198 196 183 164 159 185 175 184 171 158 184 186 152 174 148 137 137 164 132 160 162 353 334 268 207 191 210 246 256 276 277 245 262 279 299 322 348 346 347
143 98 193 174 180 186 194 177 198 178 216 195 168 149 171 158 121 111 80 106 124 139 134 159 143 134 234 82 25 273 197 193 189 203 207 224 248 283 266 287 306 354 0 338 339